Weather History for Alma, GA

Change the Weather History Date:

Tuesday, July 2, 2013

  Actual Average Record
Temperature  
Mean Temperature 79 °F 82 °F  
Max Temperature 86 °F 92 °F 99 °F (1954)
Min Temperature 72 °F 71 °F 63 °F (1975)
Degree Days  
Heating Degree Days 0 0  
Month to date heating degree days 0 0  
Since 1 June heating degree days 0 0  
Since 1 July heating degree days 0 0  
Cooling Degree Days 14 17  
Month to date cooling degree days 28 33  
Year to date cooling degree days 798 906  
Since 1 June cooling degree days 487 476  
Growing Degree Days 28 (Base 50)    
Moisture  
Dew Point 71 °F    
Average Humidity 83    
Maximum Humidity 100    
Minimum Humidity 65    
Precipitation  
Precipitation 0.22 in 0.18 in 1.96 in (1971)
Month to date precipitation 0.35 0.34  
Year to date precipitation 26.79 23.81  
Snow  
Snow 0.00 in 0.00 in 0.00 in ()
Month to date snowfall 0.0 0.0  
Since 1 June snowfall 0.0 0.0  
Since 1 July snowfall 0.0 0.0  
Snow Depth 0.00 in    
Sea Level Pressure  
Sea Level Pressure 30.04 in    
Wind  
Wind Speed 5 mph (SSE)    
Max Wind Speed 24 mph    
Max Gust Speed 35 mph    
Visibility 10 miles    
Events Rain , Thunderstorm    
T = Trace of Precipitation, MM = Missing Value Source: NWS Daily Summary

Daily Weather History Graph

Daily Weather History Graph

Search for Another Location

Airport:

Trip Planner

Search our weather history database for the weather conditions in past years. The results will help you decide how hot, cold, wet, or windy it might be!

Date:

Astronomy

Jul. 02, 2013 Rise Set
Actual Time 6:29 AM EDT 8:38 PM EDT
Civil Twilight 6:01 AM EDT 9:06 PM EDT
Nautical Twilight 5:27 AM EDT 9:40 PM EDT
Astronomical Twilight 4:50 AM EDT 10:17 PM EDT
Moon 2:20 AM EDT (7/2) 4:00 PM EDT (7/2)
Length of Visible Light 15h 05m
Length of Day
14h 09m
Waning Crescent, 26% of the Moon is Illuminated
Jul 2
Waning Crescent
Jul 8
New
Jul 15
First Quarter
Jul 22
Full
Jul 29
Last Quarter

Hourly Weather History & Observations

Time (EDT) Temp. Heat Index Dew Point Humidity Pressure Visibility Wind Dir Wind Speed Gust Speed Precip Events Conditions
12:53 AM 73.9 °F - 70.0 °F 87% 29.99 in 10.0 mi SSE 5.8 mph - N/A   Overcast
1:28 AM 73.4 °F - 69.8 °F 88% 30.00 in 10.0 mi SSE 6.9 mph - N/A   Mostly Cloudy
1:53 AM 73.0 °F - 69.1 °F 87% 29.99 in 10.0 mi South 6.9 mph - N/A   Clear
2:50 AM 73.4 °F - 69.8 °F 88% 29.99 in 10.0 mi South 4.6 mph - N/A   Mostly Cloudy
2:53 AM 73.0 °F - 69.1 °F 87% 29.98 in 10.0 mi SSE 4.6 mph - N/A   Mostly Cloudy
3:20 AM 71.6 °F - 69.8 °F 94% 29.99 in 10.0 mi SE 5.8 mph - N/A   Partly Cloudy
3:53 AM 72.0 °F - 69.1 °F 91% 29.98 in 10.0 mi SE 5.8 mph - N/A   Mostly Cloudy
4:53 AM 72.0 °F - 69.1 °F 91% 29.98 in 10.0 mi SE 4.6 mph - N/A   Mostly Cloudy
5:53 AM 72.0 °F - 70.0 °F 93% 30.00 in 10.0 mi SSE 5.8 mph - N/A   Overcast
6:49 AM 71.6 °F - 69.8 °F 94% 30.02 in 10.0 mi SSE 4.6 mph - N/A   Overcast
6:53 AM 72.0 °F - 70.0 °F 93% 30.01 in 10.0 mi SE 4.6 mph - N/A   Overcast
7:38 AM 73.4 °F - 69.8 °F 88% 30.03 in 10.0 mi SE 4.6 mph - N/A   Overcast
7:53 AM 73.0 °F - 70.0 °F 90% 30.03 in 10.0 mi ESE 3.5 mph - N/A   Overcast
8:09 AM 73.4 °F - 69.8 °F 88% 30.04 in 10.0 mi SE 6.9 mph - N/A   Overcast
8:32 AM 73.4 °F - 69.8 °F 88% 30.05 in 10.0 mi SE 4.6 mph - N/A   Overcast
8:53 AM 73.9 °F - 71.1 °F 91% 30.05 in 10.0 mi SSE 3.5 mph - N/A   Overcast
9:20 AM 73.4 °F - 71.6 °F 94% 30.05 in 10.0 mi SSE 5.8 mph - N/A   Overcast
10:02 AM 73.4 °F - 71.6 °F 94% 30.06 in 10.0 mi SE 4.6 mph - N/A   Overcast
10:31 AM 75.2 °F - 71.6 °F 89% 30.06 in 10.0 mi SSE 5.8 mph - N/A   Overcast
10:53 AM 75.9 °F - 72.0 °F 87% 30.05 in 10.0 mi SSE 6.9 mph - N/A   Overcast
11:53 AM 77.0 °F - 72.0 °F 84% 30.05 in 10.0 mi South 6.9 mph - N/A   Overcast
12:11 PM 78.8 °F - 71.6 °F 78% 30.06 in 10.0 mi South 4.6 mph - N/A   Overcast
12:40 PM 78.8 °F - 71.6 °F 78% 30.06 in 10.0 mi SE 4.6 mph - N/A   Overcast
12:53 PM 80.1 °F 83.8 °F 72.0 °F 76% 30.05 in 10.0 mi SSW 6.9 mph - N/A   Overcast
1:53 PM 81.0 °F 85.2 °F 72.0 °F 74% 30.04 in 10.0 mi SE 5.8 mph - N/A   Scattered Clouds
2:20 PM 82.4 °F 88.2 °F 73.4 °F 74% 30.04 in 10.0 mi SSE 6.9 mph - N/A   Scattered Clouds
2:53 PM 84.9 °F 90.7 °F 72.0 °F 65% 30.03 in 10.0 mi Calm Calm - N/A   Scattered Clouds
3:53 PM 84.0 °F 89.0 °F 71.1 °F 65% 30.02 in 10.0 mi SE 6.9 mph - N/A   Scattered Clouds
4:23 PM 82.4 °F 87.2 °F 71.6 °F 70% 30.05 in 10.0 mi SSE 6.9 mph - N/A Thunderstorm Mostly Cloudy
4:38 PM 75.2 °F - 69.8 °F 83% 30.07 in 1.5 mi WSW 16.1 mph 34.5 mph 0.07 in Rain , Thunderstorm Thunderstorms and Rain
4:53 PM 72.0 °F - 71.1 °F 97% 30.06 in 3.0 mi Variable 3.5 mph 17.3 mph 0.21 in Rain , Thunderstorm Thunderstorms and Rain
5:40 PM 73.4 °F - 71.6 °F 94% 30.06 in 9.0 mi Calm Calm - 0.00 in Rain Light Rain
5:53 PM 73.9 °F - 71.1 °F 91% 30.05 in 10.0 mi Calm Calm - 0.00 in   Scattered Clouds
6:53 PM 73.9 °F - 73.0 °F 97% 30.07 in 10.0 mi ESE 5.8 mph - 0.01 in   Mostly Cloudy
7:53 PM 73.9 °F - 71.1 °F 91% 30.09 in 10.0 mi South 5.8 mph - N/A   Partly Cloudy
8:53 PM 73.0 °F - 71.1 °F 93% 30.10 in 10.0 mi ESE 3.5 mph - 0.00 in Rain Light Rain
9:53 PM 73.0 °F - 71.1 °F 93% 30.10 in 10.0 mi SE 3.5 mph - 0.00 in   Clear
10:53 PM 73.0 °F - 71.1 °F 93% 30.10 in 10.0 mi East 3.5 mph - N/A   Clear
11:53 PM 73.0 °F - 72.0 °F 96% 30.10 in 10.0 mi SSE 3.5 mph - N/A   Clear